Torna al catalogo

FENGYUN 1C DEB

AttivoSSO
NORAD 29820·DEBRIS·🇨🇳 China

Lanciato May 10, 1999 da Taiyuan Satellite Launch Center

Loading…

Prossimi Passaggi (prossime 24 ore)

TLE

AggiornatoSource: Space-Track

Epoca: Sep 14, 2026, 12:27 UTC

1 29820U 99025DN  26257.51916030  .00000177  00000-0  13853-3 0  9991
2 29820  98.8350 261.3698 0071714 187.4242 324.8750 14.02983455  4227

Traccia FENGYUN 1C DEB in tempo reale con AllMySat

Download on the App Store